VVHU700 KNDZ-KNDZ

Flight info

Callsign VVHU700
Flight time 0h 39m
Altitude 9000
Route VFR
Aircraft H60/L-VD/C

Departure

Time 2026-04-12 23:12
Airport Whiting Field Naval Air Station South Airport (KNDZ)

Arrival

Time 2026-04-12 23:51
Airport Whiting Field Naval Air Station South Airport (KNDZ)
Time Latitude Longitude Altitude Speed Heading
2026-04-12 23:01 30.70339 -87.01365 178 ft 0 kts 91°
2026-04-12 23:06 30.70339 -87.01366 169 ft 1 kts 91°
2026-04-12 23:06 30.70339 -87.01375 169 ft 1 kts 114°
2026-04-12 23:06 30.70346 -87.01387 171 ft 2 kts 132°
2026-04-12 23:07 30.70354 -87.01396 181 ft 2 kts 167°
2026-04-12 23:07 30.70365 -87.01399 180 ft 0 kts 177°
2026-04-12 23:07 30.70364 -87.01399 180 ft 0 kts 171°
2026-04-12 23:07 30.70351 -87.01397 181 ft 2 kts 196°
2026-04-12 23:08 30.70349 -87.01398 181 ft 0 kts 189°
2026-04-12 23:09 30.70334 -87.01398 179 ft 5 kts 180°
2026-04-12 23:10 30.70271 -87.01400 178 ft 14 kts 181°
2026-04-12 23:10 30.70167 -87.01392 176 ft 13 kts 165°
2026-04-12 23:10 30.70114 -87.01382 177 ft 5 kts 141°
2026-04-12 23:10 30.70061 -87.01319 178 ft 17 kts 134°
2026-04-12 23:11 30.70017 -87.01219 179 ft 12 kts 46°
2026-04-12 23:11 30.70134 -87.01088 294 ft 39 kts 45°
2026-04-12 23:11 30.70400 -87.00761 258 ft 81 kts 46°
2026-04-12 23:11 30.70788 -87.00291 272 ft 76 kts 46°
2026-04-12 23:12 30.71138 -86.99856 352 ft 81 kts 48°
2026-04-12 23:12 30.71410 -86.99286 768 ft 81 kts 95°
2026-04-12 23:12 30.71255 -86.98704 939 ft 74 kts 107°
2026-04-12 23:12 30.71151 -86.98084 911 ft 80 kts 107°
2026-04-12 23:13 30.71041 -86.97439 917 ft 80 kts 107°
2026-04-12 23:13 30.70934 -86.96804 919 ft 82 kts 107°
2026-04-12 23:13 30.70814 -86.96161 921 ft 81 kts 107°
2026-04-12 23:13 30.70704 -86.95526 922 ft 80 kts 107°
2026-04-12 23:14 30.70595 -86.94908 921 ft 78 kts 107°
2026-04-12 23:14 30.70358 -86.94367 894 ft 85 kts 128°
2026-04-12 23:14 30.69757 -86.94144 919 ft 88 kts 153°
2026-04-12 23:14 30.69253 -86.93816 924 ft 81 kts 152°
2026-04-12 23:15 30.68796 -86.93488 923 ft 74 kts 152°
2026-04-12 23:15 30.68360 -86.93209 924 ft 70 kts 152°
2026-04-12 23:15 30.67930 -86.92979 925 ft 67 kts 152°
2026-04-12 23:15 30.67515 -86.92665 917 ft 84 kts 142°
2026-04-12 23:16 30.67336 -86.91903 916 ft 107 kts 105°
2026-04-12 23:16 30.67252 -86.91089 941 ft 104 kts 102°
2026-04-12 23:16 30.67218 -86.90282 1155 ft 92 kts 96°
2026-04-12 23:16 30.67249 -86.89587 1420 ft 89 kts 96°
2026-04-12 23:17 30.67234 -86.88746 997 ft 122 kts 98°
2026-04-12 23:17 30.67179 -86.87686 868 ft 138 kts 98°
2026-04-12 23:17 30.67156 -86.86583 812 ft 136 kts 98°
2026-04-12 23:17 30.67135 -86.85464 815 ft 140 kts 98°
2026-04-12 23:18 30.67095 -86.84346 819 ft 141 kts 98°
2026-04-12 23:18 30.67029 -86.83201 818 ft 143 kts 98°
2026-04-12 23:18 30.66992 -86.82089 817 ft 138 kts 98°
2026-04-12 23:18 30.66941 -86.80963 820 ft 144 kts 98°
2026-04-12 23:19 30.66917 -86.79792 826 ft 143 kts 98°
2026-04-12 23:19 30.66797 -86.78688 806 ft 133 kts 114°
2026-04-12 23:19 30.66054 -86.78195 843 ft 123 kts 174°
2026-04-12 23:19 30.65151 -86.78036 826 ft 138 kts 174°
2026-04-12 23:20 30.64268 -86.77923 825 ft 130 kts 174°
2026-04-12 23:20 30.63385 -86.77809 835 ft 127 kts 174°
2026-04-12 23:20 30.62534 -86.77708 827 ft 122 kts 174°
2026-04-12 23:20 30.61854 -86.77466 847 ft 90 kts 143°
2026-04-12 23:21 30.61664 -86.76763 839 ft 108 kts 102°
2026-04-12 23:21 30.61536 -86.75756 817 ft 140 kts 102°
2026-04-12 23:21 30.61437 -86.74792 776 ft 116 kts 101°
2026-04-12 23:21 30.61488 -86.73975 866 ft 78 kts
2026-04-12 23:22 30.62091 -86.73692 770 ft 126 kts
2026-04-12 23:22 30.63002 -86.73595 772 ft 119 kts 358°
2026-04-12 23:22 30.63399 -86.74011 779 ft 48 kts 250°
2026-04-12 23:22 30.63154 -86.74364 770 ft 83 kts 229°
2026-04-12 23:23 30.62726 -86.75041 769 ft 113 kts 229°
2026-04-12 23:23 30.62277 -86.75755 771 ft 113 kts 229°
2026-04-12 23:23 30.61840 -86.76493 771 ft 114 kts 229°
2026-04-12 23:23 30.61354 -86.77249 739 ft 120 kts 219°
2026-04-12 23:24 30.60570 -86.77151 714 ft 124 kts 151°
2026-04-12 23:24 30.60442 -86.76186 632 ft 135 kts 82°
2026-04-12 23:24 30.60996 -86.75375 767 ft 113 kts 55°
2026-04-12 23:24 30.61456 -86.74699 564 ft 100 kts 56°
2026-04-12 23:25 30.61980 -86.74301 470 ft 92 kts
2026-04-12 23:25 30.62587 -86.74283 215 ft 57 kts
2026-04-12 23:25 30.62659 -86.74282 137 ft 1 kts 359°
2026-04-12 23:25 30.62663 -86.74281 122 ft 0 kts 356°
2026-04-12 23:26 30.62685 -86.74282 132 ft 23 kts 356°
2026-04-12 23:26 30.63221 -86.74274 246 ft 121 kts
2026-04-12 23:27 30.64195 -86.74262 545 ft 155 kts 352°
2026-04-12 23:27 30.65272 -86.74087 672 ft 156 kts 44°
2026-04-12 23:27 30.65243 -86.73174 433 ft 133 kts 157°
2026-04-12 23:27 30.64421 -86.73421 460 ft 119 kts 200°
2026-04-12 23:28 30.63820 -86.73658 451 ft 78 kts 212°
2026-04-12 23:28 30.63692 -86.74000 253 ft 25 kts 323°
2026-04-12 23:28 30.63719 -86.74068 135 ft 2 kts 345°
2026-04-12 23:28 30.63721 -86.74063 126 ft 0 kts 258°
2026-04-12 23:30 30.63699 -86.74104 139 ft 25 kts 212°
2026-04-12 23:30 30.63324 -86.74100 519 ft 70 kts 184°
2026-04-12 23:30 30.62833 -86.73855 802 ft 93 kts 128°
2026-04-12 23:31 30.62650 -86.73037 687 ft 115 kts 97°
2026-04-12 23:31 30.62232 -86.72207 719 ft 124 kts 133°
2026-04-12 23:31 30.61733 -86.71453 731 ft 125 kts 132°
2026-04-12 23:31 30.61284 -86.70671 798 ft 113 kts 126°
2026-04-12 23:32 30.61202 -86.69677 805 ft 136 kts 92°
2026-04-12 23:32 30.61249 -86.68628 820 ft 129 kts 92°
2026-04-12 23:32 30.61318 -86.67600 819 ft 123 kts 92°
2026-04-12 23:32 30.61391 -86.66603 818 ft 123 kts 87°
2026-04-12 23:33 30.61855 -86.65841 829 ft 116 kts 27°
2026-04-12 23:33 30.62584 -86.65861 836 ft 101 kts 314°
2026-04-12 23:33 30.62844 -86.66558 819 ft 113 kts 271°
2026-04-12 23:33 30.62854 -86.67591 822 ft 129 kts 263°
2026-04-12 23:34 30.62874 -86.68680 818 ft 132 kts 270°
2026-04-12 23:34 30.62758 -86.69620 818 ft 103 kts 224°
2026-04-12 23:34 30.62167 -86.69746 818 ft 96 kts 162°
2026-04-12 23:34 30.61884 -86.68985 823 ft 117 kts 90°
2026-04-12 23:35 30.61928 -86.67966 824 ft 124 kts 93°
2026-04-12 23:35 30.62004 -86.66983 822 ft 122 kts 93°
2026-04-12 23:35 30.62068 -86.66028 824 ft 119 kts 93°
2026-04-12 23:35 30.62133 -86.65022 815 ft 128 kts 96°
2026-04-12 23:36 30.61517 -86.64501 790 ft 123 kts 179°
2026-04-12 23:36 30.60906 -86.65222 835 ft 130 kts 245°
2026-04-12 23:36 30.60759 -86.66214 833 ft 122 kts 254°
2026-04-12 23:36 30.60616 -86.67197 829 ft 122 kts 254°
2026-04-12 23:37 30.60498 -86.68146 821 ft 117 kts 254°
2026-04-12 23:37 30.60348 -86.69084 823 ft 123 kts 254°
2026-04-12 23:37 30.60205 -86.70073 822 ft 125 kts 254°
2026-04-12 23:37 30.60052 -86.71047 825 ft 123 kts 254°
2026-04-12 23:38 30.59877 -86.72029 821 ft 124 kts 254°
2026-04-12 23:38 30.59703 -86.73050 767 ft 139 kts 255°
2026-04-12 23:38 30.60219 -86.73887 678 ft 145 kts 336°
2026-04-12 23:38 30.61204 -86.74248 467 ft 150 kts 351°
2026-04-12 23:39 30.62168 -86.74287 324 ft 131 kts
2026-04-12 23:39 30.62988 -86.74276 201 ft 87 kts
2026-04-12 23:39 30.63330 -86.74271 212 ft 49 kts
2026-04-12 23:39 30.63810 -86.74257 698 ft 89 kts 359°
2026-04-12 23:40 30.64435 -86.74264 733 ft 99 kts 359°
2026-04-12 23:40 30.65132 -86.74301 753 ft 104 kts 359°
2026-04-12 23:40 30.65864 -86.74361 751 ft 106 kts 359°
2026-04-12 23:40 30.66581 -86.74295 735 ft 107 kts 17°
2026-04-12 23:41 30.66923 -86.73551 765 ft 105 kts 81°
2026-04-12 23:41 30.67136 -86.72755 756 ft 103 kts 79°
2026-04-12 23:41 30.67576 -86.72116 749 ft 108 kts 31°
2026-04-12 23:41 30.68286 -86.72295 744 ft 111 kts 324°
2026-04-12 23:42 30.68505 -86.73070 749 ft 98 kts 258°
2026-04-12 23:42 30.68341 -86.73837 757 ft 98 kts 247°
2026-04-12 23:42 30.68157 -86.74604 754 ft 99 kts 247°
2026-04-12 23:43 30.67310 -86.75270 758 ft 84 kts 167°
2026-04-12 23:43 30.66735 -86.75306 750 ft 84 kts 179°
2026-04-12 23:43 30.66150 -86.75302 755 ft 85 kts 179°
2026-04-12 23:43 30.65577 -86.75491 701 ft 105 kts 204°
2026-04-12 23:44 30.65314 -86.76374 755 ft 112 kts 239°
2026-04-12 23:44 30.65135 -86.76935 707 ft 123 kts 240°
2026-04-12 23:44 30.65755 -86.77778 464 ft 153 kts 332°
2026-04-12 23:44 30.66717 -86.78242 415 ft 138 kts 335°
2026-04-12 23:45 30.67830 -86.78775 565 ft 125 kts 335°
2026-04-12 23:45 30.68599 -86.79160 1319 ft 125 kts 336°
2026-04-12 23:45 30.69172 -86.79456 961 ft 150 kts 336°
2026-04-12 23:45 30.70105 -86.80053 1070 ft 148 kts 306°
2026-04-12 23:46 30.70424 -86.81073 1096 ft 129 kts 256°
2026-04-12 23:46 30.70456 -86.82183 1067 ft 143 kts 271°
2026-04-12 23:46 30.70546 -86.83346 1075 ft 146 kts 271°
2026-04-12 23:46 30.70638 -86.84524 1078 ft 147 kts 270°
2026-04-12 23:47 30.70737 -86.85721 1078 ft 150 kts 269°
2026-04-12 23:47 30.70865 -86.86921 1096 ft 151 kts 277°
2026-04-12 23:47 30.71633 -86.87698 1063 ft 161 kts 338°
2026-04-12 23:47 30.72741 -86.87597 1109 ft 161 kts
2026-04-12 23:48 30.73780 -86.87808 1093 ft 148 kts 317°
2026-04-12 23:48 30.74033 -86.88959 988 ft 156 kts 271°
2026-04-12 23:48 30.74166 -86.90224 1100 ft 157 kts 272°
2026-04-12 23:48 30.74270 -86.91486 1101 ft 158 kts 274°
2026-04-12 23:49 30.74117 -86.92777 1012 ft 158 kts 268°
2026-04-12 23:49 30.74292 -86.94031 1155 ft 153 kts 271°
2026-04-12 23:49 30.73919 -86.94866 1096 ft 116 kts 207°
2026-04-12 23:49 30.73149 -86.95204 884 ft 93 kts 192°
2026-04-12 23:50 30.72657 -86.95749 1146 ft 115 kts 219°
2026-04-12 23:50 30.72042 -86.96611 961 ft 157 kts 238°
2026-04-12 23:50 30.71968 -86.97994 474 ft 179 kts 264°
2026-04-12 23:50 30.71699 -86.99289 382 ft 155 kts 235°
2026-04-12 23:51 30.70967 -87.00092 363 ft 125 kts 227°
2026-04-12 23:51 30.70471 -87.00683 252 ft 81 kts 228°
2026-04-12 23:51 30.70202 -87.01010 201 ft 38 kts 230°
2026-04-12 23:51 30.70136 -87.01092 178 ft 5 kts 226°
2026-04-12 23:52 30.70116 -87.01121 177 ft 8 kts 274°
2026-04-12 23:52 30.70147 -87.01223 176 ft 19 kts 290°
2026-04-12 23:52 30.70228 -87.01247 174 ft 0 kts
2026-04-12 23:52 30.70228 -87.01246 174 ft 0 kts 356°